GW7024 Weather Reports


time (UTC)temp
C
wind
direction
speed
KPH
gust
KPH
rain 1hr
cm
rain 24hr
cm
rain mn
cm
humidity
%
barometer
mb
20260504100557 12 178 3.2 4.8 0.00 0.00 0.00 48 996.3
20260504081950 12 111 0.0 3.2 0.00 0.00 0.00 47 998.2
20260504081448 12 156 1.6 1.6 0.00 0.00 0.00 46 998.3
20260504080943 12 58 6.4 9.7 0.00 0.00 0.00 46 998.2
20260504080440 12 146 1.6 1.6 0.00 0.00 0.00 47 998.4
20260504070408 12 171 1.6 3.2 0.00 0.00 0.00 47 999.5
20260504050253 10 158 0.0 0.0 0.00 0.00 0.00 60 1001.8
20260504045750 10 158 0.0 0.0 0.00 0.00 0.00 60 1002.0
20260504045250 10 158 0.0 0.0 0.00 0.00 0.00 63 1002.0
20260504044748 10 158 0.0 0.0 0.00 0.00 0.00 60 1002.1
20260504044246 10 158 0.0 0.0 0.00 0.00 0.00 65 1002.2
20260504043743 10 158 0.0 0.0 0.00 0.00 0.00 62 1002.3
20260504043239 10 159 0.0 0.0 0.00 0.00 0.00 59 1002.3
20260504042737 10 159 0.0 0.0 0.00 0.00 0.00 60 1002.4
20260504042233 10 155 0.0 0.0 0.00 0.00 0.00 65 1002.4
20260504041730 10 154 0.0 0.0 0.00 0.00 0.00 67 1002.4
20260504041226 10 152 0.0 0.0 0.00 0.00 0.00 62 1002.7
20260504040722 10 149 0.0 0.0 0.00 0.00 0.00 57 1002.7
20260504040220 10 155 0.0 0.0 0.00 0.00 0.00 57 1003.0
20260504035716 10 154 0.0 0.0 0.00 0.00 0.00 57 1003.0
20260504035213 10 153 0.0 0.0 0.00 0.00 0.00 56 1002.9
20260504034710 10 150 0.0 0.0 0.00 0.00 0.00 56 1003.1
20260504034208 10 154 0.0 0.0 0.00 0.00 0.00 55 1003.3
20260504033705 10 155 0.0 0.0 0.00 0.00 0.00 55 1003.3
20260504033202 10 156 0.0 0.0 0.00 0.00 0.00 56 1003.5
20260504032659 10 154 0.0 0.0 0.00 0.00 0.00 55 1003.5
20260504032156 10 152 0.0 0.0 0.00 0.00 0.00 55 1003.7
20260504031653 10 154 0.0 0.0 0.00 0.00 0.00 55 1003.8
20260504031149 11 154 0.0 0.0 0.00 0.00 0.00 54 1003.9
20260504030646 11 154 0.0 0.0 0.00 0.00 0.00 54 1003.9
20260504030143 11 154 0.0 0.0 0.00 0.00 0.00 55 1003.9
20260504025640 11 154 0.0 0.0 0.00 0.00 0.00 55 1004.0
20260504025136 11 154 0.0 0.0 0.00 0.00 0.00 55 1004.1
20260504024634 11 151 0.0 0.0 0.00 0.00 0.00 52 1004.1
20260504024130 11 153 0.0 0.0 0.00 0.00 0.00 53 1003.9
20260504023627 11 152 0.0 0.0 0.00 0.00 0.00 58 1004.0
20260504023123 11 152 0.0 0.0 0.00 0.00 0.00 53 1004.0
20260504022619 12 152 0.0 0.0 0.00 0.00 0.00 51 1004.0
20260504022115 12 156 0.0 0.0 0.00 0.00 0.00 51 1004.1
20260504021614 12 156 0.0 0.0 0.00 0.00 0.00 55 1004.1
20260504021110 12 154 0.0 0.0 0.00 0.00 0.00 59 1003.9
20260504020607 12 147 0.0 0.0 0.00 0.00 0.00 54 1003.9
20260504020103 13 152 0.0 0.0 0.00 0.00 0.00 47 1004.1
20260504015600 13 157 0.0 0.0 0.00 0.00 0.00 46 1003.9
20260504015055 13 157 0.0 0.0 0.00 0.00 0.00 50 1004.0
20260504014552 14 157 0.0 0.0 0.00 0.00 0.00 55 1004.0
20260504014049 15 156 0.0 0.0 0.00 0.00 0.00 56 1004.0
20260504013547 15 149 0.0 0.0 0.00 0.00 0.00 51 1004.0
20260504013043 15 157 0.0 0.0 0.00 0.00 0.00 45 1004.1
20260504012541 16 158 0.0 0.0 0.00 0.00 0.00 40 1004.0
20260504012039 16 158 0.0 0.0 0.00 0.00 0.00 39 1004.1
20260504011535 17 157 0.0 0.0 0.00 0.00 0.00 36 1004.0
20260504011031 17 162 0.0 0.0 0.00 0.00 0.00 33 1003.9
20260504010527 17 166 0.0 0.0 0.00 0.00 0.00 33 1004.0
20260504010023 18 172 0.0 0.0 0.00 0.00 0.00 34 1004.2
20260504005520 18 143 0.0 1.6 0.00 0.00 0.00 37 1004.0
20260504005018 18 148 0.0 0.0 0.00 0.00 0.00 34 1004.3
20260504004516 18 151 0.0 0.0 0.00 0.00 0.00 33 1004.1
20260504004012 18 146 0.0 0.0 0.00 0.00 0.00 33 1004.2
20260504003508 18 154 0.0 1.6 0.00 0.00 0.00 36 1004.1
20260504003006 18 145 0.0 0.0 0.00 0.00 0.00 34 1004.3
20260504002502 18 109 1.6 1.6 0.00 0.00 0.00 35 1004.3
20260504001959 18 114 1.6 1.6 0.00 0.00 0.00 38 1004.2
20260504001457 18 110 1.6 1.6 0.00 0.00 0.00 34 1004.3
20260504000953 18 129 1.6 3.2 0.00 0.00 0.00 34 1004.3
20260504000450 19 46 3.2 4.8 0.00 0.00 0.00 30 1004.3
20260503235948 20 230 1.6 3.2 0.00 0.00 0.00 33 1004.3
20260503235445 20 147 1.6 1.6 0.00 0.00 0.00 29 1004.4
20260503234942 20 116 1.6 1.6 0.00 0.00 0.00 35 1004.2
20260503234440 21 86 1.6 3.2 0.00 0.00 0.00 29 1004.3
20260503233938 22 72 1.6 3.2 0.00 0.00 0.00 31 1004.3
20260503233434 21 17 3.2 3.2 0.00 0.00 0.00 28 1004.4
20260503232931 21 99 1.6 1.6 0.00 0.00 0.00 26 1004.4
20260503232428 22 100 3.2 4.8 0.00 0.00 0.00 27 1004.4
20260503231926 22 43 4.8 4.8 0.00 0.00 0.00 27 1004.4
20260503231423 22 140 1.6 3.2 0.00 0.00 0.00 33 1004.7
20260503230919 22 106 1.6 1.6 0.00 0.00 0.00 28 1004.4
20260503230416 22 45 3.2 3.2 0.00 0.00 0.00 31 1004.7
20260503225914 22 336 3.2 9.7 0.00 0.00 0.00 28 1004.7
20260503225409 22 23 4.8 4.8 0.00 0.00 0.00 29 1004.6
20260503224906 22 46 3.2 3.2 0.00 0.00 0.00 30 1004.7
20260503224403 22 78 3.2 3.2 0.00 0.00 0.00 27 1004.7
20260503223900 22 101 3.2 4.8 0.00 0.00 0.00 29 1004.5
20260503223358 22 83 3.2 3.2 0.00 0.00 0.00 35 1004.7
20260503222853 22 43 3.2 3.2 0.00 0.00 0.00 36 1004.8
20260503222352 22 46 4.8 4.8 0.00 0.00 0.00 32 1004.8
20260503221850 22 23 6.4 6.4 0.00 0.00 0.00 32 1004.8
20260503221348 22 45 6.4 9.7 0.00 0.00 0.00 33 1004.8
20260503220844 22 55 4.8 4.8 0.00 0.00 0.00 31 1004.9
20260503220341 22 72 3.2 3.2 0.00 0.00 0.00 30 1004.7
20260503215838 22 25 4.8 4.8 0.00 0.00 0.00 30 1005.0
20260503215335 22 152 3.2 4.8 0.00 0.00 0.00 30 1005.0
20260503214833 22 295 6.4 6.4 0.00 0.00 0.00 28 1005.1
20260503214330 23 40 4.8 4.8 0.00 0.00 0.00 33 1005.0
20260503213827 22 35 6.4 6.4 0.00 0.00 0.00 25 1004.8
20260503213325 22 96 3.2 4.8 0.00 0.00 0.00 24 1005.1
20260503212821 22 54 4.8 4.8 0.00 0.00 0.00 28 1005.0
20260503212319 22 41 14.5 20.9 0.00 0.00 0.00 24 1005.0
20260503211816 23 47 6.4 6.4 0.00 0.00 0.00 32 1005.0
20260503211313 23 63 4.8 4.8 0.00 0.00 0.00 35 1004.9
20260503210813 23 94 4.8 6.4 0.00 0.00 0.00 31 1005.0
20260503210311 22 27 4.8 4.8 0.00 0.00 0.00 33 1005.2
20260503205806 23 31 6.4 6.4 0.00 0.00 0.00 31 1005.1
20260503205304 22 26 4.8 4.8 0.00 0.00 0.00 34 1005.0
20260503204759 22 104 3.2 3.2 0.00 0.00 0.00 27 1005.1
20260503204257 22 22 8.0 12.9 0.00 0.00 0.00 31 1005.0
20260503203754 22 78 3.2 4.8 0.00 0.00 0.00 38 1005.2
20260503203251 22 56 6.4 6.4 0.00 0.00 0.00 35 1005.5
20260503202748 22 12 9.7 14.5 0.00 0.00 0.00 31 1005.3
20260503202246 22 60 6.4 6.4 0.00 0.00 0.00 34 1005.3
20260503201744 22 161 0.0 0.0 0.00 0.00 0.00 27 1005.4
20260503201241 22 74 1.6 1.6 0.00 0.00 0.00 32 1005.5
20260503200737 22 34 6.4 6.4 0.00 0.00 0.00 35 1005.2
20260503200233 22 232 4.8 6.4 0.00 0.00 0.00 28 1005.5
20260503195731 22 29 6.4 6.4 0.00 0.00 0.00 40 1005.4
20260503195227 22 51 4.8 4.8 0.00 0.00 0.00 30 1005.4
20260503194726 22 38 8.0 12.9 0.00 0.00 0.00 30 1005.6
20260503194221 22 336 9.7 12.9 0.00 0.00 0.00 32 1006.0
20260503193717 22 94 3.2 4.8 0.00 0.00 0.00 32 1005.7
20260503193213 22 60 4.8 9.7 0.00 0.00 0.00 33 1005.6
20260503192709 22 126 6.4 9.7 0.00 0.00 0.00 35 1005.6
20260503192204 21 30 4.8 6.4 0.00 0.00 0.00 39 1005.8
20260503191701 21 346 4.8 9.7 0.00 0.00 0.00 36 1005.9
20260503191158 21 27 4.8 4.8 0.00 0.00 0.00 35 1005.7
20260503190655 21 36 3.2 4.8 0.00 0.00 0.00 38 1005.8
20260503190152 21 68 6.4 9.7 0.00 0.00 0.00 37 1005.8
20260503185649 21 340 6.4 9.7 0.00 0.00 0.00 38 1005.9
20260503185144 21 65 3.2 3.2 0.00 0.00 0.00 32 1005.9
20260503184639 21 75 4.8 6.4 0.00 0.00 0.00 33 1006.0
20260503184136 21 323 8.0 12.9 0.00 0.00 0.00 31 1006.0
20260503183632 21 123 3.2 4.8 0.00 0.00 0.00 36 1006.2
20260503183130 21 44 4.8 4.8 0.00 0.00 0.00 43 1006.3
20260503182628 21 48 4.8 6.4 0.00 0.00 0.00 43 1006.2
20260503182126 21 44 8.0 9.7 0.00 0.00 0.00 43 1006.2
20260503181622 21 41 6.4 9.7 0.00 0.00 0.00 41 1006.3
20260503181119 21 77 6.4 9.7 0.00 0.00 0.00 45 1006.4
20260503180616 20 161 1.6 3.2 0.00 0.00 0.00 43 1006.1
20260503180114 20 34 4.8 4.8 0.00 0.00 0.00 40 1006.4
20260503175611 20 61 6.4 6.4 0.00 0.00 0.00 37 1006.2
20260503175108 21 38 8.0 9.7 0.00 0.00 0.00 41 1006.2
20260503174605 20 135 1.6 3.2 0.00 0.00 0.00 44 1006.2
20260503174102 20 19 6.4 9.7 0.00 0.00 0.00 47 1006.5
20260503173556 20 33 8.0 9.7 0.00 0.00 0.00 47 1006.2
20260503173053 20 48 4.8 4.8 0.00 0.00 0.00 47 1006.4
20260503172550 20 164 3.2 4.8 0.00 0.00 0.00 40 1006.3
20260503172048 20 29 9.7 12.9 0.00 0.00 0.00 39 1006.4
20260503171544 20 145 0.0 1.6 0.00 0.00 0.00 38 1006.4
20260503171041 20 208 4.8 4.8 0.00 0.00 0.00 40 1006.6
20260503170538 20 25 4.8 6.4 0.00 0.00 0.00 48 1006.4
20260503150930 17 145 1.6 3.2 0.00 0.00 0.00 49 1006.2
20260503150427 17 125 0.0 1.6 0.00 0.00 0.00 46 1006.2
20260503131320 14 161 0.0 0.0 0.00 0.00 0.00 50 1005.7
20260503130817 14 177 1.6 1.6 0.00 0.00 0.00 48 1005.8
20260503130315 13 157 0.0 0.0 0.00 0.00 0.00 51 1005.5
20260503110708 10 152 0.0 0.0 0.00 0.00 0.00 56 1004.7
20260503110205 11 164 0.0 1.6 0.00 0.00 0.00 53 1004.8